Theta_e
333 332 331 330 329 329 329 328 328 328 329 329 329 328 327 327 327 327 326 325 324 323 322 321 320 319 318 317 316 315 313 313 313 313 313 312 312 312 311 311 311 310
332 332 330 329 328 328 329 330 329 329 328 329 329 328 327 326 327 326 325 324 322 321 320 319 318 317 316 315 315 314 313 313 312 313 312 312 311 311 310 311 310 310
333 331 330 328 327 328 329 329 329 328 327 327 328 328 326 326 326 325 324 322 321 320 319 318 317 316 315 315 314 313 312 312 312 312 312 311 311 310 310 310 309 309
333 331 330 328 328 327 328 327 327 327 327 326 327 327 325 325 325 324 322 321 320 319 318 317 317 316 315 314 314 312 312 311 312 312 311 310 310 310 309 309 309 308
332 330 329 328 328 328 328 327 326 326 326 327 327 326 324 324 324 323 321 320 319 318 317 316 316 315 315 314 313 311 311 310 311 311 309 309 309 309 309 308 307 307
331 329 328 328 328 328 328 326 326 326 326 326 326 325 324 324 323 321 320 319 318 317 316 316 315 314 314 313 312 311 311 310 310 310 308 308 308 309 309 308 306 306
329 329 328 328 328 328 328 327 326 325 326 326 325 323 323 323 322 321 319 318 317 316 315 315 314 313 313 312 311 310 310 310 309 308 307 307 307 307 308 308 306 305
328 329 328 327 328 328 326 325 324 325 325 323 323 323 323 323 321 320 319 317 316 315 315 314 313 313 312 311 310 309 309 310 309 308 307 307 307 306 307 308 307 305
328 327 327 328 328 327 325 324 324 324 324 322 321 321 323 322 321 320 318 317 316 315 314 313 312 312 312 311 310 308 308 309 309 308 307 306 306 306 306 306 306 305
326 326 327 327 326 324 324 324 323 323 323 322 321 321 321 322 321 319 318 317 315 314 313 312 312 312 311 310 309 308 308 307 308 308 308 307 306 306 306 306 305 305
326 326 326 325 324 324 324 323 323 322 321 320 319 319 319 320 320 319 318 316 315 313 312 312 311 311 310 310 310 310 309 308 308 308 308 308 308 307 307 306 306 306
325 326 325 324 324 324 323 322 321 321 320 319 318 317 318 319 319 319 318 316 315 313 313 312 311 311 310 309 309 309 310 309 309 308 307 307 308 308 307 308 307 306
325 326 325 324 323 323 322 321 320 320 318 316 316 316 317 318 319 318 318 316 315 314 312 312 311 311 310 310 309 309 308 308 308 308 308 309 308 308 309 309 308 308
326 325 323 322 321 320 319 318 318 317 316 316 315 315 316 317 318 318 317 317 315 314 313 313 312 311 310 310 309 309 308 308 308 308 307 308 309 309 310 310 309 308
323 321 321 320 318 317 315 315 315 315 314 314 314 315 317 317 317 317 315 315 314 314 312 312 311 311 310 310 309 308 309 308 308 308 307 308 308 309 310 310 309 309
319 318 316 316 315 315 314 314 314 314 313 313 313 313 315 315 316 316 315 314 313 312 312 312 311 311 308 303 304 308 309 308 309 309 308 308 308 308 308 309 310 310
317 315 314 313 313 313 312 312 313 314 314 312 312 312 313 314 314 314 314 313 312 311 311 311 310 308 298 296 297 300 308 309 308 308 309 309 308 307 307 307 308 309
316 315 313 312 312 311 311 312 313 313 313 312 311 311 312 313 313 313 313 312 312 311 311 311 310 301 294 295 295 296 302 309 309 308 308 308 308 308 308 307 307 308
316 315 313 311 311 310 311 312 312 312 311 310 310 311 311 311 311 311 311 311 311 310 310 310 309 295 294 294 294 294 296 304 307 308 307 307 307 307 307 307 307 307
315 313 311 311 310 310 309 309 310 310 310 310 309 310 310 310 310 310 310 310 310 310 309 309 307 296 294 294 294 293 294 300 306 307 307 306 306 307 307 307 307 307
314 312 310 310 309 308 308 307 307 308 308 308 308 309 309 309 309 308 308 309 309 309 308 307 306 294 293 293 292 292 293 298 306 305 305 305 305 306 307 307 307 308
313 311 309 308 308 307 306 305 305 306 305 306 306 307 307 308 308 308 307 307 307 307 307 306 303 292 292 292 292 292 294 305 305 305 305 304 304 304 304 305 305 307
312 310 308 307 307 306 306 305 305 306 305 305 304 304 304 305 306 306 307 306 305 306 306 305 302 294 291 292 292 292 297 305 305 304 304 304 304 304 304 304 304 305
312 310 308 307 307 307 307 307 306 306 305 305 304 303 304 304 305 304 305 305 305 305 306 304 303 296 291 292 292 293 299 304 304 304 304 304 303 304 305 306 304 299
312 311 309 308 307 307 307 306 304 303 304 305 304 304 303 303 303 303 303 303 304 305 302 304 303 297 291 291 292 292 300 305 304 304 303 303 302 302 304 304 303 300
311 310 309 307 306 306 306 306 305 303 302 302 302 301 300 300 301 302 301 301 302 303 302 304 302 300 296 291 292 292 295 304 304 303 302 302 302 301 301 303 303 303
Wind_Speed
12 11 11 9 8 7 8 8 7 8 7 6 6 6 6 7 8 7 7 7 7 6 6 6 6 6 5 5 6 6 7 7 6 6 7 7 7 7 7 8 8 7
11 12 10 9 9 6 6 6 8 8 7 6 6 6 7 8 7 7 7 8 7 7 7 6 6 6 6 5 6 7 7 6 7 5 8 9 7 8 8 8 8 7
10 12 13 13 11 9 7 6 7 7 7 6 7 6 8 6 7 7 7 8 7 7 6 6 7 6 6 6 6 6 6 7 7 7 8 8 7 7 7 7 7 8
12 11 9 10 9 12 9 8 7 7 7 7 7 8 8 6 8 8 8 8 7 7 6 7 7 6 6 6 7 6 7 7 7 7 8 7 7 7 7 7 8 8
13 12 11 12 10 9 9 9 9 8 8 8 8 8 8 8 8 8 8 7 7 7 7 7 6 6 6 6 6 7 6 7 6 7 8 8 7 6 6 7 9 9
12 12 8 9 11 10 9 9 9 10 9 9 9 8 8 9 8 9 8 8 7 7 7 7 7 6 6 6 6 6 6 7 7 9 10 9 8 7 6 8 9 9
12 11 13 9 11 10 10 9 9 9 9 8 8 8 9 9 9 9 9 8 9 8 8 7 7 7 6 6 6 7 7 8 8 9 10 9 9 9 8 9 9 9
13 12 12 11 10 10 9 9 9 9 8 8 9 9 9 9 10 9 8 9 8 8 8 8 7 7 7 6 7 8 8 6 8 10 10 9 9 9 8 7 8 9
12 11 12 14 11 10 10 10 9 9 8 9 9 9 9 9 9 9 9 9 9 8 8 8 8 7 6 7 8 9 8 8 8 10 10 10 9 9 9 8 9 8
12 12 14 13 10 9 11 11 10 9 8 9 9 8 9 8 9 10 10 9 9 9 8 8 8 7 7 7 9 9 9 9 9 9 9 9 9 9 9 8 9 9
14 14 14 11 10 9 11 11 10 9 7 9 9 9 9 9 8 9 9 9 8 9 9 9 8 8 9 8 8 8 8 9 9 9 8 8 8 8 8 9 8 8
13 13 12 12 11 11 12 11 10 9 9 7 9 10 9 9 10 8 8 9 9 9 9 9 8 8 9 9 9 8 8 8 8 8 8 8 7 8 8 7 7 7
13 13 11 11 11 10 9 9 9 9 9 9 7 10 10 10 9 10 8 9 10 9 9 9 9 8 8 9 9 9 9 9 8 8 7 6 6 7 6 6 7 6
13 11 10 9 9 9 9 8 8 8 8 7 9 9 10 10 11 10 8 8 9 9 9 8 8 8 8 9 9 8 8 8 8 8 8 6 6 5 5 6 6 6
9 8 8 10 9 8 8 8 8 7 7 8 7 7 7 9 10 10 10 9 8 8 9 7 7 7 7 8 8 8 8 8 8 8 7 7 6 6 5 5 6 6
9 9 8 9 9 9 8 8 8 8 8 8 8 8 8 9 9 9 10 10 10 9 8 6 5 4 6 9 9 8 8 6 6 6 7 7 6 6 5 4 4 5
11 10 9 10 9 8 8 9 9 8 9 9 8 8 9 9 9 10 9 9 10 10 9 6 5 5 10 8 9 9 8 7 7 6 5 6 6 6 6 5 4 5
11 11 10 9 9 9 9 9 9 9 9 9 9 9 8 8 9 9 9 9 8 9 8 7 6 9 11 10 10 9 7 7 6 6 5 5 5 6 5 5 5 4
11 12 11 9 9 10 9 9 10 9 9 9 9 8 8 9 8 9 8 8 9 10 8 7 7 10 11 11 10 9 8 7 6 6 6 5 5 5 6 6 5 5
10 10 11 10 9 9 9 9 10 9 9 8 8 8 8 8 8 9 8 8 8 9 8 7 8 10 11 11 11 10 9 5 6 5 5 5 4 4 4 5 5 6
10 10 10 9 9 9 9 9 9 9 9 8 8 9 9 9 9 9 8 8 8 8 7 7 6 11 11 12 11 11 9 6 6 5 4 4 3 3 3 3 4 4
10 9 9 9 10 10 10 9 9 10 11 9 8 7 6 7 6 7 9 8 8 8 7 7 7 10 11 12 12 12 10 6 6 6 5 5 4 3 3 3 3 4
11 10 10 10 11 11 11 11 11 10 8 7 8 7 7 7 7 7 7 8 8 8 8 7 8 9 10 12 13 13 9 7 6 6 5 5 4 4 3 3 3 3
14 13 11 11 11 12 12 9 8 7 9 8 9 9 8 7 7 7 6 7 8 9 8 9 8 9 11 12 13 12 9 8 7 7 6 5 5 3 3 3 3 1
14 13 12 11 9 8 9 11 10 9 8 7 6 7 7 7 6 7 6 5 6 6 8 9 8 9 10 12 12 11 9 8 7 7 7 5 5 4 3 3 4 3
11 13 12 11 13 13 9 9 8 7 8 7 6 5 6 6 6 6 7 6 5 6 7 6 9 8 10 11 12 11 9 8 7 8 8 7 6 6 5 4 4 4
Wind_Direction
153 154 152 152 148 149 146 146 140 140 144 146 145 142 139 138 139 116 111 110 108 105 100 96 95 94 89 85 84 85 82 80 78 76 77 76 72 69 67 65 65 66
156 153 147 144 148 139 142 147 139 140 138 137 132 127 130 134 124 121 117 113 107 103 106 101 97 96 95 92 88 90 89 89 85 79 81 79 80 76 72 68 69 71
155 152 155 155 152 156 147 144 131 128 129 127 125 127 137 126 123 117 118 115 112 112 107 102 98 94 98 98 95 90 91 90 87 82 81 76 75 77 76 74 71 67
164 163 157 151 139 151 152 141 130 122 125 131 136 135 134 126 124 120 116 117 117 114 108 106 105 107 106 103 98 91 89 86 86 89 88 83 77 80 78 77 74 71
167 166 162 158 154 144 146 141 134 133 135 134 128 126 129 132 128 126 124 120 120 118 116 113 113 113 113 105 102 100 95 92 88 90 89 86 81 82 80 80 78 75
171 169 156 146 144 150 147 139 135 136 134 137 139 134 134 135 131 132 132 129 127 127 124 121 121 116 111 109 105 101 101 96 94 96 93 91 91 84 83 83 80 74
167 163 161 153 146 149 141 135 131 133 137 133 131 135 139 138 136 137 137 134 134 134 131 128 126 123 119 115 108 104 99 99 102 100 99 99 99 91 86 85 83 80
165 164 163 157 145 143 132 131 135 136 133 132 134 139 144 140 140 139 140 140 136 135 132 129 130 127 127 121 116 110 104 103 103 103 104 105 102 96 91 86 86 83
158 157 161 162 147 143 137 136 136 135 140 137 138 140 142 142 141 144 144 141 137 136 134 132 133 131 127 125 118 115 113 109 108 108 109 110 107 104 100 95 90 86
151 157 162 159 146 141 138 139 141 142 143 137 137 138 140 139 143 147 146 144 140 140 138 138 137 133 129 125 121 120 119 115 112 110 110 110 111 109 103 98 94 90
156 159 161 150 144 140 141 142 143 142 141 138 135 135 137 140 144 148 148 149 147 147 143 142 141 138 132 127 122 122 120 118 116 114 113 112 108 105 100 100 95 90
155 156 152 152 147 145 146 146 145 144 141 137 140 137 140 146 149 153 156 153 151 148 145 142 142 139 135 133 129 126 122 119 118 118 117 116 111 107 104 99 97 93
158 158 150 152 149 146 143 143 144 142 142 142 140 140 146 150 154 153 155 154 151 147 146 144 142 141 136 135 134 133 131 127 124 123 122 114 110 106 103 101 98 96
164 152 145 144 139 136 135 135 134 135 134 135 141 143 148 152 154 155 151 153 149 147 143 143 144 141 139 138 138 138 138 137 133 132 129 123 113 108 105 102 100 100
148 128 133 134 133 127 121 125 129 128 133 139 143 142 144 149 151 150 149 147 146 144 143 144 147 145 146 146 141 143 143 142 142 139 139 134 128 117 109 108 106 100
132 130 132 131 131 133 132 131 134 139 142 144 144 145 142 143 146 150 152 151 149 146 146 147 147 146 137 143 147 147 147 142 141 143 145 145 140 131 117 109 106 109
138 139 137 136 133 128 133 138 141 143 146 146 143 142 143 143 146 148 152 154 154 152 151 152 146 137 135 139 133 136 141 144 148 146 147 152 154 151 139 130 125 122
141 142 141 136 135 138 142 143 143 146 147 147 143 141 141 143 148 152 150 150 150 153 153 152 147 133 147 143 144 144 141 142 143 147 153 156 159 155 144 143 138 138
144 144 144 143 143 142 138 140 144 143 143 143 145 144 143 148 148 145 149 152 154 155 154 149 143 145 152 150 146 142 134 143 147 148 158 156 156 157 149 149 149 144
145 137 141 143 139 135 136 136 140 143 140 140 137 140 144 139 143 146 147 156 159 157 152 149 145 153 155 152 145 142 146 145 142 147 148 151 156 155 153 152 157 158
142 137 134 135 135 133 132 133 135 135 138 141 147 151 151 151 153 153 155 158 158 155 150 149 140 148 155 150 145 145 141 140 138 139 145 141 145 147 154 143 162 170
138 131 127 130 133 136 136 137 141 149 150 151 147 145 143 143 146 152 154 157 155 153 148 144 137 152 154 152 146 145 146 148 146 148 146 146 145 152 155 155 164 176
144 136 137 139 145 146 148 153 157 156 146 143 137 142 147 153 153 154 155 154 154 158 150 141 145 164 160 154 150 152 158 154 151 155 147 146 146 147 161 155 169 180
149 150 146 152 152 157 157 148 137 139 149 154 148 149 155 156 153 149 151 156 159 160 157 147 152 159 166 158 156 167 166 157 162 159 149 146 142 152 157 153 113 83
149 153 154 151 144 135 143 149 154 155 154 151 139 139 140 143 149 146 146 149 155 152 140 145 147 155 169 162 162 167 166 163 167 163 160 158 156 152 160 151 138 127
151 145 143 144 151 168 162 151 136 122 140 139 131 128 131 141 144 145 148 148 144 147 156 154 148 156 169 169 165 170 178 169 170 168 167 160 163 161 157 153 146 141